This demonstration page uses our WeatherBlox Daily Observations layout. Learn more.

Hourly Observations for June 4, 2019

Temp ( °F °C ) Dew Point ( °F °C ) Humidity (%) Winds ( mph kmh ) Pressure ( in mb ) Visibility ( mi km ) Precip ( " mm )
12:15 am 00:15 Clear 64 18 58 14.7 81 81 WSW 17 28 29.83 1010 10 16.09344 0 0
12:35 am 00:35 Clear 65 18.6 57 14 75 75 SW 23 37 29.83 1010 10 16.09344 0 0
12:55 am 00:55 Clear 65 18.6 56 13.6 73 73 SW 14 22 29.77 1008 10 16.09344 0 0
1:15 am 01:15 Clear 68 19.9 55 12.8 64 64 SSW 21 33 29.71 1006 10 16.09344 0 0
1:35 am 01:35 Clear 71 21.4 53 11.7 54 54 ESE 6 9 29.65 1004 10 16.09344 0 0
1:55 am 01:55 Partly Cloudy 66 18.7 56 13.6 72 72 NNE 3 6 29.71 1006 10 16.09344 0 0
2:15 am 02:15 Cloudy 69 20.7 54 12.3 59 59 S 7 11 29.71 1006 10 16.09344 0 0
2:35 am 02:35 Cloudy 66 19 56 13.4 70 70 S 5 7 29.71 1006 10 16.09344 0 0
2:55 am 02:55 Cloudy 66 19 56 13.2 69 69 W 3 6 29.71 1006 10 16.09344 0 0
3:15 am 03:15 Partly Cloudy 62 16.8 57 14 84 84 NNW 9 15 29.77 1008 10 16.09344 0 0
3:35 am 03:35 Clear 61 16.3 56 13.5 84 84 NW 7 11 29.77 1008 10 16.09344 0 0
3:55 am 03:55 Clear 64 17.7 56 13.4 76 76 NW 7 11 29.77 1008 10 16.09344 0 0
4:15 am 04:15 Clear 61 16.2 57 14.1 87 87 WNW 7 11 29.77 1008 10 16.09344 0 0
4:35 am 04:35 Partly Cloudy 61 16.1 58 14.5 90 90 SW 5 7 29.77 1008 10 16.09344 0 0
4:55 am 04:55 Partly Cloudy 60 15.7 57 14.1 90 90 WSW 6 9 29.8 1009 10 16.09344 0 0
5:15 am 05:15 Clear 59 15.2 56 13.5 90 90 SSW 3 6 29.8 1009 10 16.09344 0 0
5:35 am 05:35 Clear 59 14.9 56 13.2 90 90 S 5 7 29.85 1011 10 16.09344 0 0
5:55 am 05:55 Clear 58 14.6 56 13.2 91 91 SSW 5 7 29.85 1011 10 16.09344 0 0
6:15 am 06:15 Sunny 58 14.5 55 12.9 90 90 S 5 7 29.85 1011 10 16.09344 0 0
6:35 am 06:35 Sunny 59 15 55 13 88 88 SW 3 6 29.85 1011 10 16.09344 0 0
6:55 am 06:55 Sunny 59 15 57 13.7 92 92 W 7 11 29.85 1011 10 16.09344 0 0
7:15 am 07:15 Sunny 59 15.2 57 14.1 93 93 WNW 3 6 29.85 1011 10 16.09344 0 0
7:35 am 07:35 Sunny 60 15.4 57 14.1 92 92 W 7 11 29.83 1010 10 16.09344 0 0
7:55 am 07:55 Sunny 60 15.5 58 14.4 93 93 NW 7 11 29.8 1009 10 16.09344 0 0
8:15 am 08:15 Sunny 62 16.5 58 14.7 89 89 WNW 3 6 29.8 1009 10 16.09344 0 0
8:35 am 08:35 Sunny 65 18.3 58 14.7 80 80 Calm 29.83 1010 10 16.09344 0 0
8:55 am 08:55 Sunny 66 19 58 14.6 76 76 Calm 29.8 1009 10 16.09344 0 0
9:15 am 09:15 Sunny 68 19.8 58 14.7 73 73 Calm 29.77 1008 10 16.09344 0 0
9:35 am 09:35 Sunny 69 20.6 59 15 70 70 Calm 29.8 1009 10 16.09344 0 0
9:55 am 09:55 Sunny 71 21.5 59 15 67 67 Calm 29.8 1009 10 16.09344 0 0
10:15 am 10:15 Sunny 72 22.3 60 15.5 66 66 SSW 3 6 29.74 1007 10 16.09344 0 0
10:35 am 10:35 Sunny 74 23.1 61 15.9 64 64 SW 5 7 29.74 1007 10 16.09344 0 0
10:55 am 10:55 Sunny 74 23.6 62 16.9 66 66 SW 8 13 29.74 1007 10 16.09344 0 0
11:15 am 11:15 Sunny 75 24 62 16.8 64 64 WSW 9 15 29.74 1007 10 16.09344 0 0
11:35 am 11:35 Sunny 76 24.5 62 16.9 63 63 WSW 7 11 29.74 1007 10 16.09344 0 0
11:55 am 11:55 Sunny 77 25.1 64 17.7 64 64 SW 7 11 29.74 1007 10 16.09344 0 0
12:15 pm 12:15 Sunny 77 25.2 65 18.2 65 65 WSW 7 11 29.74 1007 10 16.09344 0 0
12:35 pm 12:35 Sunny 78 25.5 65 18.1 64 64 SW 10 17 29.71 1006 10 16.09344 0 0
12:55 pm 12:55 Sunny 79 26.1 64 17.7 60 60 W 8 13 29.71 1006 10 16.09344 0 0
1:15 pm 13:15 Sunny 79 26.3 64 17.5 58 58 WSW 8 13 29.71 1006 10 16.09344 0 0
1:35 pm 13:35 Sunny 80 26.7 63 17.1 56 56 W 7 11 29.68 1005 10 16.09344 0 0
1:55 pm 13:55 Sunny 81 27.3 63 17.4 55 55 SW 8 13 29.68 1005 10 16.09344 0 0
2:15 pm 14:15 Sunny 82 27.5 63 17.1 53 53 SW 9 15 29.68 1005 10 16.09344 0 0
2:35 pm 14:35 Sunny 83 28.1 65 18.5 56 56 WSW 8 13 29.68 1005 10 16.09344 0 0
2:55 pm 14:55 Sunny 83 28.2 62 16.6 49 49 SW 8 13 29.68 1005 10 16.09344 0 0
3:15 pm 15:15 undefined N/A N/A N/A undefined N/A N/A N/A 0 0
3:35 pm 15:35 undefined N/A N/A N/A undefined N/A N/A N/A 0 0
3:55 pm 15:55 Sunny 84 29.1 62 16.5 47 47 W 9 15 29.62 1003 10 16.09344 0.05 1.27
4:15 pm 16:15 Sunny 85 29.3 61 16.2 45 45 W 13 20 29.62 1003 10 16.09344 0 0
4:35 pm 16:35 Sunny 85 29.2 60 15.4 43 43 W 13 20 29.62 1003 10 16.09344 0 0
4:55 pm 16:55 Sunny 85 29.2 59 14.8 41 41 W 12 19 29.62 1003 10 16.09344 0 0
5:15 pm 17:15 Sunny 85 29.3 58 14.6 41 41 W 14 22 29.59 1002 10 16.09344 0 0
5:35 pm 17:35 Sunny 85 29.3 58 14.7 41 41 W 12 19 29.59 1002 10 16.09344 0 0
5:55 pm 17:55 Sunny 85 29.5 57 13.9 38 38 W 10 17 29.59 1002 10 16.09344 0 0
6:15 pm 18:15 Sunny 84 28.7 58 14.6 42 42 W 9 15 29.59 1002 10 16.09344 0 0
6:35 pm 18:35 Sunny 83 28.4 58 14.7 43 43 W 10 17 29.59 1002 10 16.09344 0 0
6:55 pm 18:55 Sunny 82 27.5 60 15.5 48 48 W 8 13 29.62 1003 10 16.09344 0 0
7:15 pm 19:15 Sunny 81 27.1 60 15.6 49 49 W 8 13 29.62 1003 10 16.09344 0 0
7:35 pm 19:35 Sunny 80 26.4 62 16.4 54 54 W 6 9 29.62 1003 10 16.09344 0 0
7:55 pm 19:55 Sunny 77 25.2 63 17.4 62 62 W 7 11 29.62 1003 10 16.09344 0 0
8:15 pm 20:15 Sunny 78 25.7 62 16.8 58 58 WSW 5 7 29.65 1004 10 16.09344 0 0
8:35 pm 20:35 Sunny 77 25.2 64 17.8 64 64 WSW 5 7 29.65 1004 10 16.09344 0 0
8:55 pm 20:55 Sunny 75 24 63 17.3 66 66 SW 5 7 29.68 1005 10 16.09344 0 0
9:15 pm 21:15 Clear 72 22.1 62 16.6 71 71 NNW 12 19 29.71 1006 10 16.09344 0 0
9:35 pm 21:35 Clear 74 23.3 60 15.7 62 62 N 10 17 29.74 1007 10 16.09344 0 0
9:55 pm 21:55 Clear 73 22.6 60 15.7 65 65 N 10 17 29.74 1007 10 16.09344 0 0
10:15 pm 22:15 Clear 73 22.6 60 15.5 64 64 N 13 20 29.74 1007 10 16.09344 0 0
10:35 pm 22:35 Partly Cloudy with Light Rain 74 23.1 59 15.2 61 61 WNW 28 44 29.8 1009 10 16.09344 0 0
10:55 pm 22:55 Mostly Cloudy with Light Rain 69 20.3 58 14.3 69 69 NNW 35 56 29.8 1009 10 16.09344 0 0
11:15 pm 23:15 Mostly Cloudy with Light Rain 66 19 58 14.4 75 75 NNW 36 57 29.8 1009 10 16.09344 0 0
11:35 pm 23:35 Cloudy with Light Rain 66 18.9 56 13.5 71 71 NW 18 30 29.8 1009 10 16.09344 0.02 0.508
11:55 pm 23:55 Cloudy with Rain 65 18.3 58 14.4 78 78 WSW 8 13 29.83 1010 10 16.09344 0.02 0.508

Powered by AerisWeather